N13151 KBED-KACK

Flight info

Callsign N13151
Flight time 0h 55m
Altitude 5000
Route KBED BRUWN AFHAS KACK
Aircraft C172/L-VGD/C

Departure

Time 2026-04-25 01:06
Airport Laurence G Hanscom Field (KBED)

Arrival

Time 2026-04-25 02:02
Airport Nantucket Memorial Airport (KACK)
Time Latitude Longitude Altitude Speed Heading
2026-04-25 00:46 42.46550 -71.27954 130 ft 0 kts 188°
2026-04-25 00:58 42.46540 -71.27965 128 ft 8 kts 250°
2026-04-25 00:59 42.46594 -71.27939 129 ft 15 kts 49°
2026-04-25 00:59 42.46683 -71.27872 127 ft 13 kts
2026-04-25 00:59 42.46762 -71.27891 127 ft 11 kts 301°
2026-04-25 00:59 42.46776 -71.27982 125 ft 9 kts 276°
2026-04-25 01:00 42.46782 -71.28054 127 ft 6 kts 277°
2026-04-25 01:00 42.46786 -71.28097 128 ft 4 kts 275°
2026-04-25 01:00 42.46792 -71.28165 127 ft 10 kts 276°
2026-04-25 01:00 42.46802 -71.28286 130 ft 16 kts 279°
2026-04-25 01:01 42.46821 -71.28470 132 ft 23 kts 277°
2026-04-25 01:01 42.46844 -71.28719 132 ft 30 kts 275°
2026-04-25 01:01 42.46871 -71.29011 133 ft 30 kts 277°
2026-04-25 01:01 42.46896 -71.29272 130 ft 26 kts 282°
2026-04-25 01:02 42.46915 -71.29492 135 ft 21 kts 276°
2026-04-25 01:02 42.46932 -71.29675 134 ft 19 kts 277°
2026-04-25 01:02 42.46946 -71.29837 135 ft 16 kts 277°
2026-04-25 01:02 42.46959 -71.29964 137 ft 13 kts 281°
2026-04-25 01:03 42.47010 -71.30033 137 ft 11 kts
2026-04-25 01:03 42.47069 -71.30024 137 ft 0 kts 360°
2026-04-25 01:05 42.47095 -71.30023 137 ft 14 kts
2026-04-25 01:05 42.47175 -71.29986 138 ft 11 kts 72°
2026-04-25 01:05 42.47159 -71.29760 140 ft 47 kts 95°
2026-04-25 01:05 42.47110 -71.29138 184 ft 78 kts 97°
2026-04-25 01:06 42.47026 -71.28424 428 ft 78 kts 96°
2026-04-25 01:06 42.46982 -71.27674 624 ft 83 kts 103°
2026-04-25 01:06 42.46530 -71.27353 851 ft 87 kts 202°
2026-04-25 01:06 42.46263 -71.28086 1059 ft 94 kts 258°
2026-04-25 01:07 42.46127 -71.28948 1319 ft 92 kts 256°
2026-04-25 01:07 42.45998 -71.29797 1527 ft 93 kts 256°
2026-04-25 01:07 42.45869 -71.30652 1754 ft 92 kts 255°
2026-04-25 01:07 42.45738 -71.31509 1954 ft 94 kts 256°
2026-04-25 01:08 42.45595 -71.32403 2039 ft 103 kts 256°
2026-04-25 01:08 42.45361 -71.33365 2039 ft 111 kts 232°
2026-04-25 01:08 42.44697 -71.33765 2039 ft 110 kts 177°
2026-04-25 01:08 42.43951 -71.33750 2223 ft 103 kts 177°
2026-04-25 01:09 42.43258 -71.33744 2474 ft 96 kts 177°
2026-04-25 01:09 42.42607 -71.33724 2716 ft 91 kts 177°
2026-04-25 01:09 42.41977 -71.33691 2907 ft 92 kts 176°
2026-04-25 01:09 42.41332 -71.33657 3077 ft 94 kts 177°
2026-04-25 01:10 42.40673 -71.33607 3271 ft 95 kts 177°
2026-04-25 01:10 42.40010 -71.33545 3461 ft 96 kts 177°
2026-04-25 01:10 42.39343 -71.33479 3644 ft 96 kts 177°
2026-04-25 01:10 42.38671 -71.33403 3831 ft 97 kts 177°
2026-04-25 01:11 42.37992 -71.33321 4006 ft 99 kts 177°
2026-04-25 01:11 42.37305 -71.33234 4188 ft 99 kts 177°
2026-04-25 01:11 42.36619 -71.33140 4357 ft 101 kts 177°
2026-04-25 01:11 42.35925 -71.32979 4524 ft 103 kts 158°
2026-04-25 01:12 42.35277 -71.32565 4701 ft 103 kts 156°
2026-04-25 01:12 42.34621 -71.32161 4868 ft 104 kts 156°
2026-04-25 01:12 42.33960 -71.31749 5037 ft 106 kts 156°
2026-04-25 01:12 42.33250 -71.31303 5046 ft 118 kts 155°
2026-04-25 01:13 42.32462 -71.30815 5043 ft 129 kts 156°
2026-04-25 01:13 42.31634 -71.30304 5045 ft 133 kts 156°
2026-04-25 01:13 42.30792 -71.29789 5050 ft 132 kts 156°
2026-04-25 01:13 42.29956 -71.29280 5048 ft 132 kts 156°
2026-04-25 01:14 42.29123 -71.28773 5049 ft 132 kts 156°
2026-04-25 01:14 42.28288 -71.28263 5047 ft 132 kts 156°
2026-04-25 01:14 42.27454 -71.27757 5050 ft 132 kts 156°
2026-04-25 01:14 42.26616 -71.27249 5046 ft 131 kts 156°
2026-04-25 01:15 42.25784 -71.26748 5050 ft 131 kts 156°
2026-04-25 01:15 42.24950 -71.26247 5052 ft 131 kts 156°
2026-04-25 01:15 42.24115 -71.25741 5050 ft 131 kts 156°
2026-04-25 01:15 42.23278 -71.25234 5055 ft 132 kts 156°
2026-04-25 01:16 42.22443 -71.24732 5050 ft 131 kts 156°
2026-04-25 01:16 42.21606 -71.24232 5049 ft 131 kts 156°
2026-04-25 01:16 42.20769 -71.23734 5049 ft 131 kts 156°
2026-04-25 01:16 42.19935 -71.23239 5051 ft 131 kts 156°
2026-04-25 01:17 42.19111 -71.22752 5053 ft 131 kts 156°
2026-04-25 01:17 42.18550 -71.22420 5050 ft 131 kts 156°
2026-04-25 01:17 42.17444 -71.21772 5051 ft 131 kts 156°
2026-04-25 01:17 42.16605 -71.21283 5061 ft 131 kts 156°
2026-04-25 01:18 42.15768 -71.20794 5052 ft 131 kts 156°
2026-04-25 01:18 42.14897 -71.20461 5051 ft 130 kts 181°
2026-04-25 01:18 42.14017 -71.20689 5057 ft 130 kts 199°
2026-04-25 01:18 42.13133 -71.20953 5050 ft 130 kts 196°
2026-04-25 01:19 42.12249 -71.21210 5051 ft 130 kts 196°
2026-04-25 01:19 42.11365 -71.21466 5054 ft 130 kts 196°
2026-04-25 01:19 42.10483 -71.21725 5051 ft 130 kts 196°
2026-04-25 01:19 42.09614 -71.21979 5057 ft 129 kts 196°
2026-04-25 01:20 42.08736 -71.22237 5049 ft 129 kts 196°
2026-04-25 01:20 42.07849 -71.22285 5029 ft 131 kts 158°
2026-04-25 01:20 42.07144 -71.21553 5032 ft 128 kts 135°
2026-04-25 01:20 42.06469 -71.20771 5036 ft 128 kts 138°
2026-04-25 01:21 42.05767 -71.20023 5036 ft 129 kts 140°
2026-04-25 01:21 42.05054 -71.19290 5043 ft 129 kts 140°
2026-04-25 01:21 42.04346 -71.18574 5043 ft 129 kts 140°
2026-04-25 01:21 42.03626 -71.17848 5039 ft 129 kts 140°
2026-04-25 01:22 42.02906 -71.17124 5037 ft 129 kts 141°
2026-04-25 01:22 42.02186 -71.16402 5035 ft 129 kts 141°
2026-04-25 01:22 42.01467 -71.15680 5033 ft 128 kts 141°
2026-04-25 01:22 42.00752 -71.14962 5030 ft 128 kts 140°
2026-04-25 01:23 42.00036 -71.14244 5030 ft 128 kts 141°
2026-04-25 01:23 41.99318 -71.13525 5030 ft 129 kts 141°
2026-04-25 01:23 41.98601 -71.12806 5038 ft 129 kts 141°
2026-04-25 01:23 41.97884 -71.12087 5033 ft 128 kts 141°
2026-04-25 01:24 41.97168 -71.11370 5037 ft 128 kts 140°
2026-04-25 01:24 41.96454 -71.10655 5036 ft 128 kts 141°
2026-04-25 01:24 41.95738 -71.09938 5041 ft 128 kts 140°
2026-04-25 01:24 41.95030 -71.09230 5042 ft 128 kts 141°
2026-04-25 01:25 41.94312 -71.08511 5042 ft 128 kts 141°
2026-04-25 01:25 41.93597 -71.07795 5039 ft 128 kts 141°
2026-04-25 01:25 41.92883 -71.07081 5049 ft 128 kts 140°
2026-04-25 01:25 41.92167 -71.06366 5044 ft 128 kts 140°
2026-04-25 01:26 41.91693 -71.05892 5044 ft 128 kts 140°
2026-04-25 01:26 41.90744 -71.04944 5042 ft 128 kts 140°
2026-04-25 01:26 41.90028 -71.04229 5040 ft 128 kts 141°
2026-04-25 01:26 41.89315 -71.03516 5045 ft 128 kts 140°
2026-04-25 01:27 41.88601 -71.02803 5041 ft 128 kts 140°
2026-04-25 01:27 41.88117 -71.02320 5043 ft 128 kts 140°
2026-04-25 01:27 41.87402 -71.01606 5045 ft 128 kts 140°
2026-04-25 01:28 41.85981 -71.00189 5043 ft 128 kts 140°
2026-04-25 01:28 41.85265 -70.99475 5042 ft 128 kts 141°
2026-04-25 01:28 41.84548 -70.98761 5050 ft 128 kts 141°
2026-04-25 01:28 41.83832 -70.98047 5041 ft 128 kts 140°
2026-04-25 01:29 41.83107 -70.97325 5041 ft 128 kts 140°
2026-04-25 01:29 41.82402 -70.96623 5039 ft 128 kts 140°
2026-04-25 01:29 41.81688 -70.95912 5043 ft 128 kts 140°
2026-04-25 01:29 41.80975 -70.95203 5039 ft 128 kts 140°
2026-04-25 01:30 41.80261 -70.94492 5040 ft 128 kts 140°
2026-04-25 01:30 41.79546 -70.93781 5043 ft 128 kts 140°
2026-04-25 01:30 41.78833 -70.93071 5041 ft 128 kts 140°
2026-04-25 01:30 41.78118 -70.92360 5041 ft 128 kts 140°
2026-04-25 01:31 41.77402 -70.91649 5040 ft 128 kts 140°
2026-04-25 01:31 41.76694 -70.90945 5039 ft 128 kts 140°
2026-04-25 01:31 41.75976 -70.90232 5040 ft 128 kts 140°
2026-04-25 01:31 41.75259 -70.89520 5042 ft 128 kts 140°
2026-04-25 01:32 41.74541 -70.88808 5042 ft 128 kts 140°
2026-04-25 01:32 41.73824 -70.88096 5042 ft 128 kts 140°
2026-04-25 01:32 41.73108 -70.87386 5041 ft 128 kts 140°
2026-04-25 01:32 41.72391 -70.86674 5041 ft 128 kts 140°
2026-04-25 01:33 41.71675 -70.85964 5039 ft 128 kts 140°
2026-04-25 01:33 41.70958 -70.85253 5042 ft 128 kts 140°
2026-04-25 01:33 41.70241 -70.84542 5041 ft 128 kts 140°
2026-04-25 01:33 41.69525 -70.83833 5039 ft 128 kts 140°
2026-04-25 01:34 41.68808 -70.83123 5045 ft 128 kts 140°
2026-04-25 01:34 41.68092 -70.82414 5042 ft 128 kts 140°
2026-04-25 01:34 41.67374 -70.81703 5040 ft 128 kts 140°
2026-04-25 01:34 41.66659 -70.80995 5041 ft 128 kts 140°
2026-04-25 01:35 41.65950 -70.80294 5041 ft 128 kts 140°
2026-04-25 01:35 41.65234 -70.79584 5040 ft 128 kts 140°
2026-04-25 01:35 41.64519 -70.78876 5036 ft 128 kts 140°
2026-04-25 01:35 41.63803 -70.78167 5039 ft 128 kts 140°
2026-04-25 01:36 41.63083 -70.77456 5035 ft 128 kts 140°
2026-04-25 01:36 41.62364 -70.76745 5036 ft 129 kts 140°
2026-04-25 01:36 41.61643 -70.76033 5035 ft 129 kts 140°
2026-04-25 01:36 41.60922 -70.75321 5035 ft 129 kts 140°
2026-04-25 01:37 41.60197 -70.74605 5036 ft 129 kts 140°
2026-04-25 01:37 41.59478 -70.73896 5046 ft 129 kts 140°
2026-04-25 01:37 41.58758 -70.73185 5046 ft 129 kts 140°
2026-04-25 01:37 41.58048 -70.72485 5047 ft 129 kts 140°
2026-04-25 01:38 41.57326 -70.71774 5049 ft 129 kts 140°
2026-04-25 01:38 41.56603 -70.71061 5051 ft 129 kts 140°
2026-04-25 01:38 41.55880 -70.70349 5047 ft 129 kts 140°
2026-04-25 01:38 41.55159 -70.69638 5049 ft 129 kts 140°
2026-04-25 01:39 41.54437 -70.68927 5037 ft 129 kts 140°
2026-04-25 01:39 41.53715 -70.68216 5037 ft 129 kts 140°
2026-04-25 01:39 41.52991 -70.67503 5035 ft 129 kts 140°
2026-04-25 01:39 41.52267 -70.66791 5037 ft 129 kts 140°
2026-04-25 01:40 41.51543 -70.66079 5039 ft 129 kts 140°
2026-04-25 01:40 41.50820 -70.65368 5041 ft 129 kts 140°
2026-04-25 01:40 41.50098 -70.64658 5042 ft 129 kts 140°
2026-04-25 01:40 41.49375 -70.63947 5043 ft 129 kts 140°
2026-04-25 01:41 41.48651 -70.63236 5042 ft 129 kts 140°
2026-04-25 01:41 41.47927 -70.62524 5043 ft 129 kts 140°
2026-04-25 01:41 41.47203 -70.61814 5044 ft 129 kts 140°
2026-04-25 01:41 41.46477 -70.61100 5046 ft 130 kts 140°
2026-04-25 01:42 41.45760 -70.60397 5044 ft 130 kts 140°
2026-04-25 01:42 41.45032 -70.59683 5042 ft 130 kts 140°
2026-04-25 01:42 41.44306 -70.58970 5042 ft 130 kts 140°
2026-04-25 01:42 41.43577 -70.58256 5044 ft 130 kts 140°
2026-04-25 01:43 41.42849 -70.57542 5046 ft 130 kts 140°
2026-04-25 01:43 41.42122 -70.56829 5044 ft 130 kts 140°
2026-04-25 01:43 41.41394 -70.56116 5044 ft 130 kts 140°
2026-04-25 01:43 41.40665 -70.55402 5046 ft 130 kts 140°
2026-04-25 01:44 41.39932 -70.54685 5044 ft 131 kts 140°
2026-04-25 01:44 41.39198 -70.53966 5042 ft 131 kts 140°
2026-04-25 01:44 41.38466 -70.53249 5044 ft 131 kts 140°
2026-04-25 01:44 41.37728 -70.52527 5034 ft 131 kts 140°
2026-04-25 01:45 41.36993 -70.51808 5036 ft 131 kts 140°
2026-04-25 01:45 41.36261 -70.51092 5032 ft 131 kts 140°
2026-04-25 01:45 41.35529 -70.50377 5034 ft 131 kts 140°
2026-04-25 01:45 41.34797 -70.49661 5032 ft 130 kts 140°
2026-04-25 01:46 41.34066 -70.48946 5031 ft 130 kts 140°
2026-04-25 01:46 41.33344 -70.48241 5029 ft 130 kts 140°
2026-04-25 01:46 41.32613 -70.47528 5028 ft 130 kts 140°
2026-04-25 01:46 41.31881 -70.46813 5028 ft 130 kts 139°
2026-04-25 01:47 41.31150 -70.46100 5026 ft 130 kts 139°
2026-04-25 01:47 41.30415 -70.45383 5027 ft 131 kts 139°
2026-04-25 01:47 41.29671 -70.44657 4918 ft 137 kts 140°
2026-04-25 01:47 41.28897 -70.43912 4710 ft 137 kts 140°
2026-04-25 01:48 41.28128 -70.43168 4506 ft 136 kts 140°
2026-04-25 01:48 41.27364 -70.42424 4293 ft 136 kts 140°
2026-04-25 01:48 41.26612 -70.41693 4086 ft 135 kts 140°
2026-04-25 01:48 41.25858 -70.40958 3879 ft 134 kts 140°
2026-04-25 01:49 41.25109 -70.40229 3672 ft 133 kts 140°
2026-04-25 01:49 41.24366 -70.39506 3463 ft 132 kts 140°
2026-04-25 01:49 41.23629 -70.38789 3258 ft 131 kts 139°
2026-04-25 01:49 41.22899 -70.38079 3048 ft 130 kts 140°
2026-04-25 01:50 41.22191 -70.37387 3023 ft 122 kts 139°
2026-04-25 01:50 41.21520 -70.36730 3015 ft 118 kts 139°
2026-04-25 01:50 41.20864 -70.36088 3005 ft 117 kts 139°
2026-04-25 01:50 41.20206 -70.35445 3001 ft 118 kts 139°
2026-04-25 01:51 41.19543 -70.34800 2998 ft 118 kts 139°
2026-04-25 01:51 41.18941 -70.34079 2912 ft 122 kts 129°
2026-04-25 01:51 41.18334 -70.33272 2736 ft 122 kts 131°
2026-04-25 01:51 41.17740 -70.32490 2555 ft 119 kts 131°
2026-04-25 01:52 41.17162 -70.31722 2370 ft 117 kts 131°
2026-04-25 01:52 41.16589 -70.30952 2336 ft 116 kts 131°
2026-04-25 01:52 41.16026 -70.30198 2330 ft 115 kts 131°
2026-04-25 01:52 41.15464 -70.29449 2333 ft 114 kts 131°
2026-04-25 01:53 41.14902 -70.28701 2329 ft 114 kts 131°
2026-04-25 01:53 41.14341 -70.27956 2329 ft 114 kts 131°
2026-04-25 01:53 41.13783 -70.27214 2330 ft 113 kts 131°
2026-04-25 01:53 41.13230 -70.26481 2324 ft 111 kts 131°
2026-04-25 01:54 41.12694 -70.25772 2324 ft 109 kts 130°
2026-04-25 01:54 41.12281 -70.24972 2320 ft 102 kts 103°
2026-04-25 01:54 41.12254 -70.24065 2321 ft 98 kts 74°
2026-04-25 01:54 41.12574 -70.23277 2319 ft 98 kts 46°
2026-04-25 01:55 41.13076 -70.22623 2219 ft 103 kts 46°
2026-04-25 01:55 41.13584 -70.21944 2093 ft 104 kts 46°
2026-04-25 01:55 41.14094 -70.21267 1965 ft 104 kts 45°
2026-04-25 01:55 41.14606 -70.20586 1774 ft 104 kts 46°
2026-04-25 01:56 41.15108 -70.19927 1730 ft 99 kts 45°
2026-04-25 01:56 41.15589 -70.19296 1721 ft 96 kts 45°
2026-04-25 01:56 41.16062 -70.18675 1725 ft 95 kts 46°
2026-04-25 01:56 41.16528 -70.18060 1726 ft 96 kts 46°
2026-04-25 01:57 41.17425 -70.16876 1737 ft 87 kts 46°
2026-04-25 01:57 41.17852 -70.16314 1733 ft 86 kts 46°
2026-04-25 01:57 41.18275 -70.15756 1729 ft 85 kts 46°
2026-04-25 01:58 41.18696 -70.15200 1734 ft 85 kts 46°
2026-04-25 01:58 41.19123 -70.14635 1679 ft 90 kts 46°
2026-04-25 01:58 41.19574 -70.14035 1562 ft 93 kts 46°
2026-04-25 01:58 41.20035 -70.13423 1439 ft 94 kts 46°
2026-04-25 01:59 41.20500 -70.12807 1316 ft 95 kts 46°
2026-04-25 01:59 41.20971 -70.12181 1175 ft 95 kts 46°
2026-04-25 01:59 41.21437 -70.11563 1031 ft 94 kts 46°
2026-04-25 01:59 41.21898 -70.10952 886 ft 93 kts 46°
2026-04-25 02:00 41.22345 -70.10360 760 ft 90 kts 46°
2026-04-25 02:00 41.22780 -70.09784 636 ft 87 kts 46°
2026-04-25 02:00 41.23204 -70.09223 506 ft 85 kts 46°
2026-04-25 02:00 41.23621 -70.08673 394 ft 84 kts 46°
2026-04-25 02:01 41.24033 -70.08132 272 ft 81 kts 46°
2026-04-25 02:01 41.24436 -70.07590 163 ft 81 kts 45°
2026-04-25 02:01 41.24805 -70.07104 65 ft 68 kts 45°
2026-04-25 02:01 41.25102 -70.06713 37 ft 51 kts 43°
2026-04-25 02:02 41.25301 -70.06452 41 ft 22 kts 44°
2026-04-25 02:02 41.25379 -70.06410 43 ft 11 kts 324°
2026-04-25 02:02 41.25419 -70.06462 42 ft 0 kts 316°